When you browse on this site, cookies collect data to enhance your experience and personalize the content and advertising you see.
Visit our Privacy Policy to learn more. By continuing to use the site, you agree to this use of cookies and data.
  • In Deutschland
  • Länderverzeichnis
  • Für 7 Tage
  • Wassertemperatur
  • Satellitenkarten
  • Wetterkarte
  • Widgets
  • user-avatar
    Anmelden

    Stündliche Wetter Witebsk

    Heute, 23 Februar, Samstag

    Zeit Temperatur Niederschläge Wind Luftdruck Luftfeuchtigkeit
    00:00 -11°C° 0 mm 4 m/S 762 mmHg 83%
    01:00 -12°C° 0 mm 4 m/S 762 mmHg 84%
    02:00 -12°C° 0 mm 3 m/S 763 mmHg 88%
    03:00 -13°C° 0 mm 3 m/S 763 mmHg 88%
    04:00 -13°C° 0 mm 3 m/S 763 mmHg 89%
    05:00 -12°C° 0 mm 2 m/S 763 mmHg 89%
    06:00 -12°C° 0 mm 2 m/S 763 mmHg 87%
    07:00 -12°C° 0 mm 2 m/S 763 mmHg 86%
    08:00 -10°C° 0 mm 2 m/S 764 mmHg 83%
    09:00 -9°C° 0 mm 2 m/S 763 mmHg 79%
    10:00 -9°C° 0 mm 3 m/S 763 mmHg 76%
    11:00 -7°C° 0 mm 3 m/S 763 mmHg 72%
    12:00 -8°C° 0 mm 4 m/S 762 mmHg 72%
    13:00 -7°C° 0 mm 5 m/S 762 mmHg 71%
    14:00 -7°C° 0 mm 5 m/S 761 mmHg 71%
    15:00 -8°C° 0.2 mm 6 m/S 760 mmHg 75%
    16:00 -8°C° 0.2 mm 6 m/S 760 mmHg 78%
    17:00 -9°C° 0.2 mm 6 m/S 759 mmHg 82%
    18:00 -8°C° 0.3 mm 6 m/S 759 mmHg 83%
    19:00 -8°C° 0.3 mm 6 m/S 758 mmHg 85%
    20:00 -8°C° 0.3 mm 6 m/S 757 mmHg 87%
    21:00 -7°C° 0.1 mm 5 m/S 757 mmHg 88%
    22:00 -6°C° 0.1 mm 5 m/S 757 mmHg 89%
    23:00 -5°C° 0.1 mm 4 m/S 756 mmHg 90%

    Morgen, 24 Februar, Sonntag

    Zeit Temperatur Niederschläge Wind Luftdruck Luftfeuchtigkeit
    00:00 -4°C° 0.1 mm 4 m/S 756 mmHg 91%
    01:00 -4°C° 0.1 mm 4 m/S 756 mmHg 92%
    02:00 -3°C° 0.1 mm 4 m/S 756 mmHg 92%
    03:00 -3°C° 0 mm 4 m/S 756 mmHg 93%
    04:00 -3°C° 0 mm 4 m/S 755 mmHg 93%
    05:00 -2°C° 0 mm 4 m/S 755 mmHg 94%
    06:00 -2°C° 0 mm 4 m/S 755 mmHg 94%
    07:00 -1°C° 0 mm 3 m/S 755 mmHg 95%
    08:00 -1°C° 0 mm 3 m/S 756 mmHg 95%
    09:00 -1°C° 0 mm 3 m/S 756 mmHg 96%
    10:00 -1°C° 0 mm 3 m/S 756 mmHg 97%
    11:00 0°C° 0 mm 3 m/S 756 mmHg 98%
    12:00 0°C° 0 mm 3 m/S 755 mmHg 98%
    13:00 0°C° 0 mm 3 m/S 755 mmHg 98%
    14:00 0°C° 0 mm 3 m/S 755 mmHg 99%
    15:00 0°C° 0 mm 3 m/S 755 mmHg 98%
    16:00 0°C° 0 mm 3 m/S 754 mmHg 98%
    17:00 0°C° 0 mm 3 m/S 754 mmHg 97%
    18:00 -1°C° 0 mm 4 m/S 754 mmHg 96%
    19:00 -1°C° 0 mm 4 m/S 753 mmHg 96%
    20:00 -1°C° 0 mm 4 m/S 753 mmHg 95%
    21:00 -1°C° 0 mm 4 m/S 753 mmHg 94%
    22:00 -1°C° 0 mm 5 m/S 752 mmHg 94%
    23:00 -1°C° 0 mm 5 m/S 752 mmHg 93%

    übermorgen, 25 Februar, Montag

    Zeit Temperatur Niederschläge Wind Luftdruck Luftfeuchtigkeit
    00:00 -1°C° 0.1 mm 4 m/S 751 mmHg 94%
    01:00 -1°C° 0.1 mm 4 m/S 751 mmHg 94%
    02:00 -1°C° 0.1 mm 4 m/S 751 mmHg 95%
    03:00 -1°C° 0 mm 4 m/S 751 mmHg 95%
    04:00 -1°C° 0 mm 4 m/S 751 mmHg 95%
    05:00 -1°C° 0 mm 4 m/S 750 mmHg 94%
    06:00 -2°C° 0 mm 4 m/S 750 mmHg 93%
    07:00 -2°C° 0 mm 4 m/S 750 mmHg 92%
    08:00 -3°C° 0 mm 4 m/S 750 mmHg 91%
    09:00 -2°C° 0 mm 5 m/S 749 mmHg 88%
    10:00 -2°C° 0 mm 6 m/S 749 mmHg 85%
    11:00 -1°C° 0 mm 7 m/S 748 mmHg 82%
    12:00 -1°C° 0 mm 6 m/S 748 mmHg 83%
    13:00 -1°C° 0 mm 6 m/S 748 mmHg 83%
    14:00 0°C° 0 mm 5 m/S 747 mmHg 83%
    15:00 0°C° 0 mm 5 m/S 747 mmHg 83%
    16:00 0°C° 0 mm 5 m/S 747 mmHg 83%
    17:00 0°C° 0 mm 5 m/S 747 mmHg 83%
    18:00 -1°C° 0 mm 6 m/S 747 mmHg 84%
    19:00 -1°C° 0 mm 6 m/S 747 mmHg 84%
    20:00 -2°C° 0 mm 6 m/S 747 mmHg 85%
    21:00 -2°C° 0 mm 6 m/S 747 mmHg 86%
    22:00 -2°C° 0 mm 6 m/S 747 mmHg 86%
    23:00 -1°C° 0 mm 5 m/S 747 mmHg 87%

    26 Februar, Dienstag

    Zeit Temperatur Niederschläge Wind Luftdruck Luftfeuchtigkeit
    00:00 -1°C° 0 mm 5 m/S 746 mmHg 88%
    01:00 -1°C° 0 mm 5 m/S 746 mmHg 89%
    02:00 -2°C° 0 mm 5 m/S 746 mmHg 89%
    03:00 -2°C° 0 mm 5 m/S 745 mmHg 90%
    04:00 -2°C° 0 mm 5 m/S 745 mmHg 90%
    05:00 -2°C° 0 mm 5 m/S 744 mmHg 90%
    06:00 -2°C° 0.1 mm 5 m/S 744 mmHg 89%
    07:00 -2°C° 0.1 mm 5 m/S 743 mmHg 89%
    08:00 -2°C° 0.1 mm 5 m/S 743 mmHg 88%
    09:00 -1°C° 0.1 mm 5 m/S 743 mmHg 89%
    10:00 -1°C° 0.1 mm 5 m/S 743 mmHg 90%
    11:00 -1°C° 0.1 mm 5 m/S 742 mmHg 90%
    12:00 0°C° 0.1 mm 5 m/S 743 mmHg 90%
    13:00 0°C° 0.1 mm 5 m/S 743 mmHg 89%
    14:00 0°C° 0.1 mm 5 m/S 743 mmHg 89%
    15:00 0°C° 0.1 mm 5 m/S 743 mmHg 89%
    16:00 0°C° 0.1 mm 4 m/S 743 mmHg 89%
    17:00 -1°C° 0.1 mm 4 m/S 744 mmHg 89%
    18:00 -1°C° 0 mm 4 m/S 744 mmHg 89%
    19:00 -1°C° 0 mm 4 m/S 745 mmHg 88%
    20:00 -2°C° 0 mm 4 m/S 745 mmHg 88%
    21:00 -2°C° 0 mm 4 m/S 746 mmHg 85%
    22:00 -2°C° 0 mm 4 m/S 746 mmHg 82%
    23:00 -3°C° 0 mm 4 m/S 747 mmHg 79%

    27 Februar, Mittwoch

    Zeit Temperatur Niederschläge Wind Luftdruck Luftfeuchtigkeit
    00:00 -3°C° 0 mm 4 m/S 747 mmHg 81%
    01:00 -4°C° 0 mm 3 m/S 747 mmHg 83%
    02:00 -4°C° 0 mm 3 m/S 747 mmHg 85%
    03:00 -4°C° 0 mm 3 m/S 747 mmHg 87%
    04:00 -5°C° 0 mm 3 m/S 747 mmHg 88%
    05:00 -5°C° 0 mm 3 m/S 747 mmHg 90%
    06:00 -4°C° 0 mm 2 m/S 747 mmHg 90%
    07:00 -4°C° 0 mm 2 m/S 747 mmHg 91%
    08:00 -4°C° 0 mm 2 m/S 747 mmHg 92%
    09:00 -3°C° 0 mm 2 m/S 747 mmHg 90%
    10:00 -2°C° 0 mm 3 m/S 746 mmHg 89%
    11:00 -1°C° 0 mm 3 m/S 746 mmHg 88%
    12:00 -1°C° 0.1 mm 4 m/S 745 mmHg 89%
    13:00 -1°C° 0.1 mm 4 m/S 745 mmHg 90%
    14:00 -1°C° 0.1 mm 5 m/S 744 mmHg 91%
    15:00 -1°C° 0.1 mm 5 m/S 743 mmHg 90%
    16:00 -1°C° 0.1 mm 5 m/S 743 mmHg 90%
    17:00 0°C° 0.1 mm 4 m/S 742 mmHg 89%
    18:00 -1°C° 0 mm 4 m/S 742 mmHg 90%
    19:00 -1°C° 0 mm 4 m/S 742 mmHg 91%
    20:00 -1°C° 0 mm 3 m/S 742 mmHg 92%
    21:00 -1°C° 0 mm 3 m/S 742 mmHg 93%
    22:00 -1°C° 0 mm 3 m/S 741 mmHg 93%
    23:00 -2°C° 0 mm 3 m/S 741 mmHg 94%

    28 Februar, Donnerstag

    Zeit Temperatur Niederschläge Wind Luftdruck Luftfeuchtigkeit
    00:00 -2°C° 0 mm 3 m/S 741 mmHg 93%
    01:00 -2°C° 0 mm 3 m/S 740 mmHg 93%
    02:00 -2°C° 0 mm 3 m/S 740 mmHg 93%
    03:00 -2°C° 0 mm 3 m/S 739 mmHg 93%
    04:00 -4°C° 0 mm 3 m/S 739 mmHg 93%
    05:00 -4°C° 0 mm 3 m/S 738 mmHg 93%
    06:00 -2°C° 0 mm 3 m/S 738 mmHg 92%
    07:00 -2°C° 0 mm 3 m/S 737 mmHg 90%
    08:00 -2°C° 0 mm 3 m/S 736 mmHg 89%
    09:00 -1°C° 0 mm 3 m/S 735 mmHg 87%
    10:00 -1°C° 0 mm 4 m/S 734 mmHg 85%
    11:00 -1°C° 0 mm 4 m/S 733 mmHg 83%
    12:00 -1°C° 0.3 mm 4 m/S 732 mmHg 82%
    13:00 0°C° 0.3 mm 4 m/S 731 mmHg 81%
    14:00 0°C° 0.3 mm 4 m/S 730 mmHg 80%
    15:00 0°C° 0.4 mm 4 m/S 729 mmHg 84%
    16:00 -1°C° 0.4 mm 4 m/S 728 mmHg 88%
    17:00 -1°C° 0.4 mm 4 m/S 727 mmHg 92%
    18:00 -1°C° 0.1 mm 5 m/S 727 mmHg 91%
    19:00 -1°C° 0.1 mm 5 m/S 727 mmHg 90%
    20:00 -1°C° 0.1 mm 5 m/S 727 mmHg 89%
    21:00 -1°C° 0.1 mm 5 m/S 727 mmHg 88%
    22:00 -1°C° 0.1 mm 5 m/S 726 mmHg 87%
    23:00 -1°C° 0.1 mm 5 m/S 726 mmHg 86%
    Mehr zeigen